Location: Chicoutimi
(48.4330°N, 71.0670°W)
Time: 10:56:31
(UTC-05:00)

ISS - Visible Passes

Search period start: 21 December 2014 00:00
Search period end: 31 December 2014 00:00
Orbit: 404 x 414 km, 51.6° (Epoch: 21 December)

Date Brightness Start Highest point End Pass type
(mag) Time Alt. Az. Time Alt. Az. Time Alt. Az.
21 Dec -3.4 17:54:46 10° WNW 17:58:00 81° NNW 17:58:00 81° NNW visible
22 Dec -3.3 17:03:58 10° WNW 17:07:15 62° NNE 17:09:31 18° E visible
22 Dec -0.8 18:40:41 10° WNW 18:42:17 23° W 18:42:17 23° W visible
23 Dec -2.8 17:49:44 10° WNW 17:52:58 55° SSW 17:53:54 38° SSE visible
24 Dec -3.3 16:58:48 10° WNW 17:02:07 83° SSW 17:05:23 10° ESE visible
24 Dec -0.7 18:36:01 10° W 18:38:17 18° SW 18:38:27 17° SW visible
25 Dec -1.3 17:44:41 10° W 17:47:32 28° SW 17:50:23 10° SSE visible
26 Dec -2.1 16:53:32 10° WNW 16:56:41 44° SSW 16:59:49 10° SE visible
27 Dec -0.2 17:40:03 10° WSW 17:41:48 14° SW 17:43:33 10° SSW visible
28 Dec -0.5 16:48:20 10° W 16:50:57 22° SW 16:53:34 10° SSE visible
30 Dec 0.5 16:44:09 10° WSW 16:44:54 11° SW 16:45:40 10° SSW visible
